Regional Weather Roundup
Issued by NWS

Home | Current Version | Previous Version | Text Only | Print | Product List | Glossary Off
Versions: 1 2 3 4 5 6 7 8 9 10 11 12 13 14 15 16 17 18 19 20 21 22 23 24 25 26 27 28 29 30 31 32 33 34 35 36 37 38 39 40 41 42 43 44 45 46 47 48 49 50

680
ASUS45 KBOI 221310
RWRID

IDAHO REGIONAL WEATHER ROUNDUP
NATIONAL WEATHER SERVICE BOISE ID
700 AM MDT FRI SEP 22 2017

NOTE: "FAIR" INDICATES FEW OR NO CLOUDS BELOW 12000 FEET
WITH NO SIGNIFICANT WEATHER AND/OR OBSTRUCTIONS TO VISIBILITY

IDZ012-014-221400-
SOUTHWEST IDAHO


CITY           SKY/WX    TMP DP  RH WIND       PRES   REMARKS
BOISE          CLOUDY    43  40  89 NW10      29.88R
CALDWELL       RAIN      44  41  89 W9        29.89R
MOUNTAIN HOME  PTCLDY    40  40 100 NW5       29.88R
$$

IDZ016-017-221400-
SOUTHCENTRAL IDAHO


CITY           SKY/WX    TMP DP  RH WIND       PRES   REMARKS
BURLEY         LGT RAIN  40  35  83 SW13      29.86R WCI  32
JEROME         MOCLDY    36  36 100 SW8       29.87R WCI  30
TWIN FALLS     MOCLDY    37  34  89 SW7       29.88R WCI  32
$$

IDZ019>023-221400-
SOUTHEAST IDAHO


CITY           SKY/WX    TMP DP  RH WIND       PRES   REMARKS
IDAHO FALLS    LGT RAIN  41  40  96 S9        29.84S FOG
POCATELLO      LGT RAIN  40  38  93 S8        29.86R WCI  34
REXBURG        CLOUDY    39  38  96 SW6       29.83R WCI  35
$$

IDZ006-010-011-018-031-032-221400-
CENTRAL IDAHO MOUNTAINS


CITY           SKY/WX    TMP DP  RH WIND       PRES   REMARKS
MCCALL         CLOUDY    38  33  82 CALM      29.81S
HAILEY         CLOUDY    37  37 100 SE9       29.83F WCI  31
STANLEY          N/A     34  32  92 CALM      29.82R
SALMON         LGT RAIN  42  38  85 CALM      29.85S
CHALLIS        CLOUDY    37  36  96 N5        29.82S WCI  33
$$

IDZ002-004-006-007-026-221400-
NORTHERN IDAHO


CITY           SKY/WX    TMP DP  RH WIND       PRES   REMARKS
LEWISTON       CLEAR     39  38  96 S3        29.96S
LOWELL           N/A     42  39  89 CALM      29.97R
COEUR D`ALENE  CLEAR     38  36  92 NE8       29.99S WCI  32
MULLAN PASS    PTCLDY    30  27  88 CALM      29.93S
$$




USA.gov is the U.S. government's official web portal to all federal, state and local government web resources and services.